When you browse on this site, cookies collect data to enhance your experience and personalize the content and advertising you see.
Visit our Privacy Policy to learn more. By continuing to use the site, you agree to this use of cookies and data.
  • In Switzerland
  • List of Countries
  • For 7 days
  • Water Temperature
  • Weather Map
  • Weather Widgets
  • user-avatar
    Login

    Hourly Weather Maracay

    Today, 19 September, Thursday

    Time Temperature Precipitation Wind Pressure Humidity
    00:00 +23°C° 0.8 mm 1 mps 709 mmHg 93%
    01:00 +23°C° 0.8 mm 1 mps 708 mmHg 93%
    02:00 +23°C° 0.5 mm 1 mps 708 mmHg 93%
    03:00 +21°C° 0.5 mm 0 mps 708 mmHg 94%
    04:00 +21°C° 0.5 mm 0 mps 708 mmHg 94%
    05:00 +24°C° 0.1 mm 1 mps 708 mmHg 92%
    06:00 +24°C° 0.1 mm 1 mps 709 mmHg 90%
    07:00 +25°C° 0.1 mm 1 mps 709 mmHg 87%
    08:00 +27°C° 0 mm 1 mps 710 mmHg 80%
    09:00 +28°C° 0 mm 1 mps 710 mmHg 73%
    10:00 +30°C° 0 mm 1 mps 710 mmHg 65%
    11:00 +30°C° 0.4 mm 1 mps 710 mmHg 64%
    12:00 +30°C° 0.4 mm 1 mps 709 mmHg 64%
    13:00 +31°C° 0.4 mm 1 mps 708 mmHg 63%
    14:00 +30°C° 0.8 mm 1 mps 708 mmHg 67%
    15:00 +29°C° 0.8 mm 1 mps 708 mmHg 72%
    16:00 +29°C° 0.8 mm 1 mps 708 mmHg 76%
    17:00 +28°C° 0.2 mm 1 mps 708 mmHg 80%
    18:00 +26°C° 0.2 mm 1 mps 708 mmHg 83%
    19:00 +25°C° 0.2 mm 1 mps 709 mmHg 86%
    20:00 +25°C° 0 mm 1 mps 709 mmHg 86%
    21:00 +25°C° 0 mm 1 mps 709 mmHg 85%
    22:00 +25°C° 0 mm 1 mps 710 mmHg 85%
    23:00 +25°C° 0.1 mm 1 mps 710 mmHg 85%

    Tomorrow, 20 September, Friday

    Time Temperature Precipitation Wind Pressure Humidity
    00:00 +24°C° 0.1 mm 1 mps 709 mmHg 86%
    01:00 +24°C° 0.1 mm 1 mps 709 mmHg 86%
    02:00 +24°C° 0 mm 1 mps 709 mmHg 87%
    03:00 +24°C° 0 mm 1 mps 709 mmHg 88%
    04:00 +24°C° 0 mm 1 mps 709 mmHg 89%
    05:00 +23°C° 0 mm 0 mps 710 mmHg 86%
    06:00 +24°C° 0 mm 0 mps 710 mmHg 84%
    07:00 +25°C° 0 mm 0 mps 711 mmHg 81%
    08:00 +26°C° 0.4 mm 0 mps 711 mmHg 76%
    09:00 +29°C° 0.4 mm 1 mps 711 mmHg 72%
    10:00 +30°C° 0.4 mm 1 mps 712 mmHg 67%
    11:00 +30°C° 1.2 mm 1 mps 711 mmHg 69%
    12:00 +30°C° 1.2 mm 1 mps 711 mmHg 70%
    13:00 +30°C° 1.2 mm 1 mps 710 mmHg 72%
    14:00 +29°C° 2 mm 1 mps 710 mmHg 77%
    15:00 +28°C° 2 mm 1 mps 710 mmHg 82%
    16:00 +24°C° 2 mm 0 mps 709 mmHg 86%
    17:00 +24°C° 0.3 mm 0 mps 710 mmHg 87%
    18:00 +23°C° 0.3 mm 0 mps 710 mmHg 87%
    19:00 +23°C° 0.3 mm 0 mps 710 mmHg 88%
    20:00 +23°C° 0.2 mm 0 mps 711 mmHg 88%
    21:00 +25°C° 0.2 mm 1 mps 711 mmHg 89%
    22:00 +25°C° 0.2 mm 1 mps 711 mmHg 89%
    23:00 +25°C° 0.3 mm 1 mps 711 mmHg 90%

    Day after tomorrow, 21 September, Saturday

    Time Temperature Precipitation Wind Pressure Humidity
    00:00 +22°C° 0.3 mm 0 mps 710 mmHg 90%
    01:00 +22°C° 0.3 mm 0 mps 710 mmHg 90%
    02:00 +22°C° 0 mm 0 mps 710 mmHg 90%
    03:00 +22°C° 0 mm 0 mps 710 mmHg 89%
    04:00 +22°C° 0 mm 0 mps 710 mmHg 89%
    05:00 +23°C° 0 mm 0 mps 710 mmHg 88%
    06:00 +23°C° 0 mm 0 mps 711 mmHg 86%
    07:00 +24°C° 0 mm 0 mps 711 mmHg 85%
    08:00 +25°C° 0.1 mm 0 mps 711 mmHg 78%
    09:00 +29°C° 0.1 mm 1 mps 712 mmHg 71%
    10:00 +31°C° 0.1 mm 1 mps 712 mmHg 64%
    11:00 +31°C° 0.5 mm 1 mps 711 mmHg 64%
    12:00 +31°C° 0.5 mm 1 mps 711 mmHg 63%
    13:00 +31°C° 0.5 mm 1 mps 710 mmHg 63%
    14:00 +31°C° 0.8 mm 1 mps 710 mmHg 68%
    15:00 +30°C° 0.8 mm 1 mps 709 mmHg 73%
    16:00 +29°C° 0.8 mm 1 mps 709 mmHg 79%
    17:00 +28°C° 0.6 mm 1 mps 709 mmHg 82%
    18:00 +27°C° 0.6 mm 1 mps 709 mmHg 85%
    19:00 +25°C° 0.6 mm 1 mps 710 mmHg 89%
    20:00 +25°C° 0.6 mm 1 mps 710 mmHg 89%
    21:00 +25°C° 0.6 mm 1 mps 710 mmHg 89%
    22:00 +24°C° 0.6 mm 1 mps 711 mmHg 90%
    23:00 +24°C° 0 mm 1 mps 710 mmHg 90%

    22 September, Sunday

    Time Temperature Precipitation Wind Pressure Humidity
    00:00 +24°C° 0 mm 1 mps 710 mmHg 90%
    01:00 +24°C° 0 mm 1 mps 709 mmHg 91%
    02:00 +24°C° 0 mm 1 mps 709 mmHg 91%
    03:00 +23°C° 0 mm 1 mps 709 mmHg 91%
    04:00 +23°C° 0 mm 1 mps 710 mmHg 91%
    05:00 +22°C° 0.1 mm 0 mps 710 mmHg 89%
    06:00 +23°C° 0.1 mm 0 mps 711 mmHg 88%
    07:00 +24°C° 0.1 mm 0 mps 711 mmHg 86%
    08:00 +26°C° 0 mm 0 mps 712 mmHg 78%
    09:00 +29°C° 0 mm 1 mps 712 mmHg 71%
    10:00 +31°C° 0 mm 1 mps 712 mmHg 63%
    11:00 +31°C° 0.2 mm 1 mps 711 mmHg 62%
    12:00 +31°C° 0.2 mm 1 mps 711 mmHg 62%
    13:00 +31°C° 0.2 mm 2 mps 710 mmHg 62%
    14:00 +30°C° 0.5 mm 2 mps 710 mmHg 67%
    15:00 +30°C° 0.5 mm 1 mps 709 mmHg 72%
    16:00 +29°C° 0.5 mm 1 mps 709 mmHg 77%
    17:00 +28°C° 0.6 mm 1 mps 709 mmHg 80%
    18:00 +27°C° 0.6 mm 1 mps 709 mmHg 84%
    19:00 +24°C° 0.6 mm 0 mps 710 mmHg 87%
    20:00 +23°C° 0.8 mm 0 mps 710 mmHg 88%
    21:00 +25°C° 0.8 mm 1 mps 710 mmHg 88%
    22:00 +25°C° 0.8 mm 1 mps 710 mmHg 89%
    23:00 +24°C° 0 mm 1 mps 710 mmHg 90%

    23 September, Monday

    Time Temperature Precipitation Wind Pressure Humidity
    00:00 +24°C° 0 mm 1 mps 710 mmHg 91%
    01:00 +24°C° 0 mm 1 mps 710 mmHg 91%
    02:00 +24°C° 0 mm 1 mps 709 mmHg 92%
    03:00 +24°C° 0 mm 1 mps 709 mmHg 92%
    04:00 +23°C° 0 mm 1 mps 709 mmHg 92%
    05:00 +24°C° 0 mm 1 mps 710 mmHg 90%
    06:00 +23°C° 0 mm 0 mps 711 mmHg 88%
    07:00 +24°C° 0 mm 0 mps 711 mmHg 86%
    08:00 +25°C° 0.3 mm 0 mps 712 mmHg 80%
    09:00 +29°C° 0.3 mm 1 mps 712 mmHg 74%
    10:00 +30°C° 0.3 mm 1 mps 712 mmHg 68%
    11:00 +30°C° 0.7 mm 1 mps 712 mmHg 68%
    12:00 +30°C° 0.7 mm 1 mps 711 mmHg 67%
    13:00 +31°C° 0.7 mm 1 mps 710 mmHg 66%
    14:00 +30°C° 0.7 mm 1 mps 710 mmHg 69%
    15:00 +30°C° 0.7 mm 1 mps 710 mmHg 73%
    16:00 +29°C° 0.7 mm 1 mps 709 mmHg 76%
    17:00 +28°C° 1.2 mm 1 mps 709 mmHg 80%
    18:00 +27°C° 1.2 mm 1 mps 710 mmHg 84%
    19:00 +23°C° 1.2 mm 0 mps 710 mmHg 88%
    20:00 +23°C° 0.6 mm 0 mps 710 mmHg 88%
    21:00 +23°C° 0.6 mm 0 mps 710 mmHg 88%
    22:00 +23°C° 0.6 mm 0 mps 711 mmHg 87%
    23:00 +23°C° 0.4 mm 0 mps 710 mmHg 87%

    24 September, Tuesday

    Time Temperature Precipitation Wind Pressure Humidity
    00:00 +22°C° 0.4 mm 0 mps 710 mmHg 88%
    01:00 +22°C° 0.4 mm 0 mps 709 mmHg 88%
    02:00 +22°C° 0.8 mm 0 mps 709 mmHg 88%
    03:00 +22°C° 0.8 mm 0 mps 709 mmHg 88%
    04:00 +21°C° 0.8 mm 0 mps 709 mmHg 89%
    05:00 +24°C° 0.9 mm 1 mps 710 mmHg 88%
    06:00 +24°C° 0.9 mm 1 mps 711 mmHg 88%
    07:00 +25°C° 0.9 mm 1 mps 711 mmHg 88%
    08:00 +26°C° 1 mm 1 mps 712 mmHg 83%
    09:00 +27°C° 1 mm 1 mps 712 mmHg 79%
    10:00 +28°C° 1 mm 2 mps 712 mmHg 75%
    11:00 +28°C° 1.3 mm 2 mps 711 mmHg 76%
    12:00 +28°C° 1.3 mm 2 mps 711 mmHg 76%
    13:00 +28°C° 1.3 mm 2 mps 710 mmHg 77%
    14:00 +28°C° 0.7 mm 1 mps 710 mmHg 80%
    15:00 +27°C° 0.7 mm 1 mps 710 mmHg 83%
    16:00 +26°C° 0.7 mm 1 mps 709 mmHg 86%
    17:00 +25°C° 0 mm 1 mps 710 mmHg 86%
    18:00 +25°C° 0 mm 1 mps 710 mmHg 86%
    19:00 +25°C° 0 mm 1 mps 711 mmHg 87%
    20:00 +24°C° 0.1 mm 1 mps 711 mmHg 87%
    21:00 +24°C° 0.1 mm 1 mps 711 mmHg 88%
    22:00 +24°C° 0.1 mm 1 mps 712 mmHg 88%
    23:00 +24°C° 0.3 mm 1 mps 711 mmHg 88%
    Show more